This demonstration page uses our WeatherBlox Daily Observations layout. Learn more.

Left ArrowRight Arrow

34.74481, -87.66753

Hourly Observations for October 4, 2021

Temp ( °F °C ) Dew Point ( °F °C ) Humidity (%) Winds ( mph kmh ) Pressure ( in mb ) Visibility ( mi km ) Precip ( " mm )
12:40 am 00:40 Clear with Mist and Fog 67 19.4 64 17.8 91 91 N N/A 29.95 1014 2 3 N/A
12:50 am 00:50 Clear with Fog 66 19 63 17 88 88 SE 3 6 29.95 1014 1 1 N/A
12:53 am 00:53 Clear with Mist and Fog 66 18.9 63 17.2 90 90 N N/A 29.94 1014 1 2 N/A
1:07 am 01:07 Clear with Mist and Fog 66 18.9 62 16.7 87 87 N N/A 29.94 1014 1 1 N/A
1:23 am 01:23 Mostly Cloudy with Fog 66 18.9 63 17.2 90 90 N N/A 29.94 1014 1 1 N/A
1:48 am 01:48 Mostly Cloudy with Mist and Fog 66 19 64 18 94 94 N N/A 29.95 1014 2 3 N/A
1:49 am 01:49 Mostly Cloudy with Mist and Fog 68 20 64 18 88 88 N N/A 29.95 1014 3 5 N/A
1:53 am 01:53 Mostly Cloudy with Mist and Fog 67 19.4 64 17.8 91 91 N N/A 29.94 1014 4 6 N/A
2:53 am 02:53 Cloudy 69 20.6 65 18.3 87 87 N N/A 29.94 1014 7 11 N/A
3:28 am 03:28 Cloudy 69 20.6 66 18.9 90 90 N N/A 29.94 1014 8 13 N/A
3:53 am 03:53 Cloudy 69 20.6 65 18.3 87 87 N N/A 29.93 1014 8 13 N/A
4:04 am 04:04 Cloudy 69 20.6 66 18.9 90 90 N N/A 29.94 1014 8 13 N/A
4:53 am 04:53 Cloudy with Mist and Fog 69 20.6 66 18.9 90 90 N N/A 29.94 1014 5 8 N/A
5:04 am 05:04 Cloudy with Mist and Fog 69 20.6 66 18.9 90 90 S 3 6 29.94 1014 2 3 N/A
5:39 am 05:39 Cloudy with Mist and Fog 69 20.6 66 18.9 90 90 WSW 3 6 29.95 1014 3 5 N/A
5:53 am 05:53 Cloudy 69 20.6 66 18.9 90 90 N N/A 29.94 1014 8 13 N/A
6:01 am 06:01 Cloudy 69 20.6 66 18.9 90 90 N N/A 29.95 1014 10 16 N/A
6:53 am 06:53 Cloudy 69 20.6 65 18.3 87 87 N N/A 29.96 1014 10 16 N/A
7:53 am 07:53 Cloudy 70 21.1 66 18.9 87 87 N N/A 29.97 1015 10 16 N/A
8:53 am 08:53 Cloudy 71 21.7 66 18.9 84 84 N N/A 29.98 1015 10 16 N/A
9:53 am 09:53 Cloudy 72 22.2 66 18.9 82 82 N N/A 29.98 1015 10 16 N/A
10:39 am 10:39 Cloudy 73 22.8 66 18.9 79 79 SSE 3 6 29.99 1016 10 16 N/A
10:53 am 10:53 Cloudy 73 22.8 66 18.9 79 79 VRB 3 6 29.99 1016 10 16 N/A
11:16 am 11:16 Cloudy 75 23.9 67 19.4 76 76 N N/A 29.99 1016 10 16 N/A
11:53 am 11:53 Cloudy 76 24.4 66 18.9 72 72 S 5 7 29.98 1015 10 16 N/A
12:53 pm 12:53 Partly Cloudy 78 25.6 66 18.9 67 67 S 7 11 29.97 1015 10 16 N/A
1:53 pm 13:53 Mostly Sunny 79 26.1 65 18.3 62 62 SE 5 7 29.95 1014 10 16 N/A
2:39 pm 14:39 Cloudy 75 23.9 64 17.8 69 69 N 7 11 29.94 1014 10 16 N/A
2:50 pm 14:50 Cloudy 75 24 63 17 65 65 NNE 6 9 29.94 1014 10 16 N/A
2:53 pm 14:53 Cloudy 75 23.9 64 17.8 69 69 NNE 6 9 29.94 1014 10 16 N/A
3:53 pm 15:53 Mostly Cloudy 78 25.6 64 17.8 62 62 ENE 5 7 29.93 1014 10 16 N/A
4:53 pm 16:53 Partly Cloudy 79 26.1 61 16.1 54 54 E 5 7 29.93 1014 10 16 N/A
5:53 pm 17:53 Sunny 77 25 64 17.8 64 64 NE 3 6 29.93 1014 10 16 N/A
6:53 pm 18:53 Clear 71 21.7 63 17.2 76 76 N N/A 29.95 1014 10 16 N/A
7:53 pm 19:53 Clear 70 21.1 64 17.8 82 82 N N/A 29.96 1015 10 16 N/A
8:53 pm 20:53 Cloudy 69 20.6 64 17.8 84 84 N N/A 29.98 1015 10 16 N/A
9:53 pm 21:53 Clear 68 20 64 17.8 87 87 N N/A 29.98 1015 10 16 N/A
10:53 pm 22:53 Mostly Cloudy 67 19.4 63 17.2 87 87 N N/A 29.98 1015 9 14 N/A
11:53 pm 23:53 Partly Cloudy 67 19.4 63 17.2 87 87 N N/A 29.98 1015 7 11 N/A

Powered by AerisWeather